Location: Island Grove Observatory.
(44.2333°N, 79.4500°W)
Time: 11:42:18
(UTC-05:00)

N. Korean satellite - Pass Details

Date: 06 December 2021
Orbit: 447 x 491 km, 97.3° (Epoch: 23 January)

Event Time Altitude Azimuth Distance (km) Brightness Sun altitude
Rises 05:09:42 0° 20° (NNE) 2,462 10.3 -25.9°
Reaches altitude 10° 05:11:51 10° 28° (NNE) 1,583 9.4 -25.5°
Maximum altitude 05:15:01 37° 98° (E) 712 7.9 -24.9°
Drops below altitude 10° 05:18:10 10° 168° (SSE) 1,570 9.4 -24.4°
Sets 05:20:17 0° 176° (S) 2,439 10.3 -24.0°
